{"data":{"norad_id":44310,"epoch":"2026-05-25T04:46:15.767904Z","epoch_age_seconds":50799,"freshness":"FRESH","line1":"1 44310U 19032A   26145.19879361  .00007252  00000+0  27302-3 0  9991","line2":"2 44310  44.9698 182.4362 0007064 117.7178 242.4422 15.27740796383674","mean_motion":15.27740796,"eccentricity":0.0007064,"inclination_deg":44.9698,"raan_deg":182.4362,"arg_perigee_deg":117.7178,"mean_anomaly_deg":242.4422,"bstar":0.00027302,"rev_number":38367,"period_min":94.256827059294,"perigee_km":477.72125543048,"apogee_km":487.41405897017,"semimajor_km":6860.7046572003,"source":"CELESTRAK","updated_at":"2026-05-25T13:37:55.965121Z"}}